Station Historical Data
Daily Summary for April 18, 2012 Units:  English    Metric   Both
« Previous Day
Next Day »
Daily Weekly Monthly Yearly Custom
  High: Low: Average:
Temperature: 70.4 °F 49.6 °F 59.5 °F
Dew Point: 55.3 °F 46.4 °F 49.6 °F
Humidity: 95% 45% 72%
Wind Speed: 12.0mph 0.0mph 4.1mph
Wind Gust: 14.0mph - -
Wind- - South
Pressure: 30.15 in 30.01 in -
Precipitation: 0.00 in    
Historical Graphs
 
 
Tabular Data for April 18, 2012
Time Temperature Dew Point Pressure Wind Wind Speed Wind Gust Humidity Rainfall Rate (Hourly) Conditions
00:00 51.9 °F 50.5 °F 30.15 in North 5.0 mph 9.0 mph 95% 0.00 in
00:01 51.9 °F 50.5 °F 30.15 in NW 5.0 mph 9.0 mph 95% 0.00 in
00:06 51.9 °F 50.2 °F 30.14 in NW 8.0 mph 12.0 mph 94% 0.00 in
00:12 51.9 °F 50.2 °F 30.14 in NNW 10.0 mph 11.0 mph 94% 0.00 in
00:17 52.0 °F 50.3 °F 30.15 in NW 5.0 mph 11.0 mph 94% 0.00 in
00:22 52.2 °F 50.5 °F 30.15 in NNW 11.0 mph 11.0 mph 94% 0.00 in
00:27 52.2 °F 50.5 °F 30.14 in NW 6.0 mph 10.0 mph 94% 0.00 in
00:32 52.3 °F 50.6 °F 30.14 in NW 7.0 mph 10.0 mph 94% 0.00 in
00:37 52.4 °F 50.4 °F 30.15 in NNW 7.0 mph 13.0 mph 93% 0.00 in
00:42 52.5 °F 50.5 °F 30.15 in NNW 8.0 mph 10.0 mph 93% 0.00 in
00:47 52.5 °F 50.5 °F 30.15 in North 6.0 mph 12.0 mph 93% 0.00 in
00:52 52.6 °F 50.3 °F 30.15 in NNW 7.0 mph 7.0 mph 92% 0.00 in
00:57 52.6 °F 50.3 °F 30.14 in NNW 4.0 mph 9.0 mph 92% 0.00 in
01:02 52.6 °F 50.3 °F 30.14 in NNE 7.0 mph 8.0 mph 92% 0.00 in
01:07 52.7 °F 50.5 °F 30.14 in NNE 4.0 mph 7.0 mph 92% 0.00 in
01:12 52.7 °F 50.5 °F 30.14 in NNW 5.0 mph 8.0 mph 92% 0.00 in
01:17 52.8 °F 50.2 °F 30.14 in NNW 7.0 mph 8.0 mph 91% 0.00 in
01:23 52.8 °F 50.2 °F 30.14 in NNW 4.0 mph 9.0 mph 91% 0.00 in
01:28 52.9 °F 50.3 °F 30.14 in NW 5.0 mph 7.0 mph 91% 0.00 in
01:33 52.9 °F 50.3 °F 30.14 in NNW 8.0 mph 11.0 mph 91% 0.00 in
01:38 52.9 °F 50.6 °F 30.14 in NW 5.0 mph 9.0 mph 92% 0.00 in
01:43 52.9 °F 50.6 °F 30.14 in NNE 5.0 mph 13.0 mph 92% 0.00 in
01:48 52.9 °F 50.6 °F 30.14 in NNW 6.0 mph 9.0 mph 92% 0.00 in
01:53 53.0 °F 50.7 °F 30.14 in NNE 3.0 mph 8.0 mph 92% 0.00 in
01:58 53.0 °F 50.5 °F 30.13 in North 4.0 mph 9.0 mph 91% 0.00 in
02:03 53.2 °F 50.3 °F 30.13 in NNE 5.0 mph 8.0 mph 90% 0.00 in
02:08 53.3 °F 50.5 °F 30.13 in North 8.0 mph 8.0 mph 90% 0.00 in
02:13 53.2 °F 50.3 °F 30.13 in NNE 3.0 mph 8.0 mph 90% 0.00 in
02:14 53.2 °F 50.3 °F 30.13 in North 4.0 mph 8.0 mph 90% 0.00 in
02:19 53.2 °F 50.3 °F 30.14 in NNW 3.0 mph 5.0 mph 90% 0.00 in
02:24 53.2 °F 50.3 °F 30.13 in NNW 8.0 mph 8.0 mph 90% 0.00 in
02:29 53.2 °F 50.0 °F 30.14 in NNW 5.0 mph 7.0 mph 89% 0.00 in
02:34 53.1 °F 50.2 °F 30.14 in NNW 3.0 mph 6.0 mph 90% 0.00 in
02:39 53.1 °F 50.2 °F 30.14 in NNW 3.0 mph 6.0 mph 90% 0.00 in
02:44 53.0 °F 50.2 °F 30.14 in NW 3.0 mph 6.0 mph 90% 0.00 in
02:49 53.0 °F 50.2 °F 30.14 in NW 3.0 mph 6.0 mph 90% 0.00 in
02:54 52.9 °F 50.3 °F 30.14 in North 7.0 mph 7.0 mph 91% 0.00 in
02:59 52.8 °F 50.2 °F 30.14 in North 5.0 mph 5.0 mph 91% 0.00 in
03:04 52.7 °F 50.2 °F 30.13 in NW 4.0 mph 7.0 mph 91% 0.00 in
03:09 52.7 °F 50.2 °F 30.13 in NNE 4.0 mph 6.0 mph 91% 0.00 in
03:14 52.7 °F 50.2 °F 30.13 in NNE 6.0 mph 9.0 mph 91% 0.00 in
03:19 52.7 °F 50.2 °F 30.12 in NNE 5.0 mph 6.0 mph 91% 0.00 in
03:24 52.7 °F 49.8 °F 30.12 in NNE 3.0 mph 4.0 mph 90% 0.00 in
03:29 52.7 °F 49.8 °F 30.12 in NE 4.0 mph 4.0 mph 90% 0.00 in
03:34 52.8 °F 50.0 °F 30.11 in North 4.0 mph 5.0 mph 90% 0.00 in
03:39 52.8 °F 50.0 °F 30.11 in North 4.0 mph 9.0 mph 90% 0.00 in
03:44 52.8 °F 50.0 °F 30.11 in NE 6.0 mph 10.0 mph 90% 0.00 in
03:49 52.8 °F 50.0 °F 30.10 in NNE 3.0 mph 5.0 mph 90% 0.00 in
03:54 52.7 °F 49.8 °F 30.10 in NNE 2.0 mph 6.0 mph 90% 0.00 in
03:59 52.7 °F 49.5 °F 30.10 in NNE 4.0 mph 10.0 mph 89% 0.00 in
04:05 52.8 °F 49.7 °F 30.10 in North 3.0 mph 9.0 mph 89% 0.00 in
04:10 52.8 °F 49.3 °F 30.09 in NE 5.0 mph 14.0 mph 88% 0.00 in
04:15 52.9 °F 49.5 °F 30.09 in NE 3.0 mph 8.0 mph 88% 0.00 in
04:20 52.9 °F 49.5 °F 30.09 in North 3.0 mph 5.0 mph 88% 0.00 in
04:25 52.8 °F 49.7 °F 30.09 in North 4.0 mph 6.0 mph 89% 0.00 in
04:30 52.7 °F 49.5 °F 30.10 in NNE 5.0 mph 6.0 mph 89% 0.00 in
04:35 52.6 °F 49.5 °F 30.10 in NNW 3.0 mph 6.0 mph 89% 0.00 in
04:40 52.4 °F 49.3 °F 30.10 in North 5.0 mph 8.0 mph 89% 0.00 in
04:45 52.3 °F 49.5 °F 30.10 in North 6.0 mph 6.0 mph 90% 0.00 in
04:50 52.2 °F 49.4 °F 30.10 in NW 3.0 mph 8.0 mph 90% 0.00 in
04:55 52.2 °F 49.4 °F 30.10 in NNW 4.0 mph 7.0 mph 90% 0.00 in
05:00 52.1 °F 49.3 °F 30.10 in NW 6.0 mph 7.0 mph 90% 0.00 in
05:05 52.0 °F 49.2 °F 30.10 in NW 4.0 mph 8.0 mph 90% 0.00 in
05:10 51.8 °F 49.3 °F 30.10 in NW 4.0 mph 8.0 mph 91% 0.00 in
05:15 51.7 °F 49.2 °F 30.10 in NNW 4.0 mph 8.0 mph 91% 0.00 in
05:20 51.6 °F 49.4 °F 30.11 in North 8.0 mph 8.0 mph 92% 0.00 in
05:25 51.5 °F 49.3 °F 30.10 in NNW 3.0 mph 8.0 mph 92% 0.00 in
05:30 51.4 °F 49.2 °F 30.10 in NNW 4.0 mph 9.0 mph 92% 0.00 in
05:35 51.4 °F 48.9 °F 30.10 in NW 4.0 mph 9.0 mph 91% 0.00 in
05:40 51.3 °F 48.8 °F 30.10 in NNW 6.0 mph 9.0 mph 91% 0.00 in
05:45 51.3 °F 48.8 °F 30.10 in North 8.0 mph 11.0 mph 91% 0.00 in
05:50 51.4 °F 48.9 °F 30.10 in NE 6.0 mph 10.0 mph 91% 0.00 in
05:55 51.4 °F 48.6 °F 30.10 in NNE 2.0 mph 9.0 mph 90% 0.00 in
06:00 51.4 °F 48.6 °F 30.10 in North 3.0 mph 8.0 mph 90% 0.00 in
06:06 51.5 °F 48.4 °F 30.10 in NE 6.0 mph 8.0 mph 89% 0.00 in
06:11 51.7 °F 48.3 °F 30.09 in ENE 5.0 mph 10.0 mph 88% 0.00 in
06:16 51.9 °F 48.5 °F 30.09 in North 6.0 mph 10.0 mph 88% 0.00 in
06:21 52.1 °F 48.4 °F 30.09 in NE 4.0 mph 7.0 mph 87% 0.00 in
06:26 52.2 °F 48.2 °F 30.09 in North 4.0 mph 11.0 mph 86% 0.00 in
06:31 52.3 °F 48.2 °F 30.09 in NE 4.0 mph 9.0 mph 86% 0.00 in
06:36 52.2 °F 47.8 °F 30.09 in NE 2.0 mph 7.0 mph 85% 0.00 in
06:41 52.0 °F 48.0 °F 30.10 in North 4.0 mph 7.0 mph 86% 0.00 in
06:46 51.7 °F 47.7 °F 30.10 in NNW 2.0 mph 5.0 mph 86% 0.00 in
06:51 51.2 °F 47.5 °F 30.10 in NW 4.0 mph 5.0 mph 87% 0.00 in
06:56 50.9 °F 47.5 °F 30.10 in NNW 3.0 mph 4.0 mph 88% 0.00 in
07:01 50.7 °F 47.3 °F 30.10 in NNW 3.0 mph 4.0 mph 88% 0.00 in
07:06 50.4 °F 47.3 °F 30.10 in North 2.0 mph 4.0 mph 89% 0.00 in
07:11 50.4 °F 47.3 °F 30.11 in North 4.0 mph 4.0 mph 89% 0.00 in
07:16 50.3 °F 47.2 °F 30.10 in NNE 2.0 mph 5.0 mph 89% 0.00 in
07:21 50.2 °F 47.1 °F 30.11 in NNW 2.0 mph 5.0 mph 89% 0.00 in
07:26 50.0 °F 46.9 °F 30.11 in North 2.0 mph 4.0 mph 89% 0.00 in
07:32 49.9 °F 46.8 °F 30.11 in North 2.0 mph 3.0 mph 89% 0.00 in
07:37 49.7 °F 46.9 °F 30.11 in North 1.0 mph 3.0 mph 90% 0.00 in
07:42 49.6 °F 46.8 °F 30.11 in NNE 1.0 mph 4.0 mph 90% 0.00 in
07:47 49.7 °F 46.9 °F 30.11 in NNE 2.0 mph 5.0 mph 90% 0.00 in
07:52 50.1 °F 47.3 °F 30.11 in NNE 4.0 mph 6.0 mph 90% 0.00 in
07:57 50.6 °F 47.5 °F 30.11 in NE 2.0 mph 3.0 mph 89% 0.00 in
08:02 51.1 °F 47.7 °F 30.12 in NNE 3.0 mph 4.0 mph 88% 0.00 in
08:07 51.4 °F 48.0 °F 30.12 in NNE 5.0 mph 6.0 mph 88% 0.00 in
08:12 51.6 °F 47.9 °F 30.12 in NNE 3.0 mph 7.0 mph 87% 0.00 in
08:17 51.9 °F 48.2 °F 30.12 in NNE 3.0 mph 8.0 mph 87% 0.00 in
08:22 52.2 °F 48.2 °F 30.12 in NE 5.0 mph 5.0 mph 86% 0.00 in
08:27 52.5 °F 48.4 °F 30.12 in North 3.0 mph 7.0 mph 86% 0.00 in
08:32 52.8 °F 48.4 °F 30.12 in NNE 2.0 mph 6.0 mph 85% 0.00 in
08:38 53.2 °F 48.8 °F 30.12 in NE 3.0 mph 7.0 mph 85% 0.00 in
08:43 53.4 °F 48.7 °F 30.12 in NNE 4.0 mph 7.0 mph 84% 0.00 in
08:48 53.8 °F 49.1 °F 30.12 in North 4.0 mph 7.0 mph 84% 0.00 in
08:53 53.9 °F 48.5 °F 30.12 in NW 4.0 mph 10.0 mph 82% 0.00 in
08:58 54.2 °F 49.2 °F 30.12 in NE 4.0 mph 7.0 mph 83% 0.00 in
09:03 54.5 °F 49.1 °F 30.12 in NNE 4.0 mph 10.0 mph 82% 0.00 in
09:08 54.7 °F 49.0 °F 30.12 in NE 3.0 mph 12.0 mph 81% 0.00 in
09:13 54.9 °F 48.9 °F 30.12 in NE 4.0 mph 10.0 mph 80% 0.00 in
09:18 55.1 °F 49.4 °F 30.12 in NE 2.0 mph 8.0 mph 81% 0.00 in
09:23 55.5 °F 49.4 °F 30.11 in ENE 7.0 mph 9.0 mph 80% 0.00 in
09:28 55.8 °F 49.4 °F 30.12 in NE 3.0 mph 10.0 mph 79% 0.00 in
09:33 56.1 °F 49.7 °F 30.12 in NNE 5.0 mph 11.0 mph 79% 0.00 in
09:38 56.5 °F 49.7 °F 30.12 in NE 5.0 mph 7.0 mph 78% 0.00 in
09:43 56.9 °F 49.8 °F 30.12 in NE 5.0 mph 8.0 mph 77% 0.00 in
09:48 57.2 °F 50.1 °F 30.12 in ENE 4.0 mph 6.0 mph 77% 0.00 in
09:53 57.6 °F 50.5 °F 30.12 in ENE 6.0 mph 7.0 mph 77% 0.00 in
09:58 57.6 °F 49.8 °F 30.12 in NW 3.0 mph 11.0 mph 75% 0.00 in
10:03 57.7 °F 49.8 °F 30.12 in NNW 5.0 mph 7.0 mph 75% 0.00 in
10:08 58.0 °F 50.5 °F 30.12 in NE 5.0 mph 9.0 mph 76% 0.00 in
10:13 58.1 °F 50.2 °F 30.12 in NNE 7.0 mph 9.0 mph 75% 0.00 in
10:18 58.5 °F 51.0 °F 30.12 in NW 5.0 mph 7.0 mph 76% 0.00 in
10:24 58.7 °F 50.5 °F 30.12 in NE 4.0 mph 10.0 mph 74% 0.00 in
10:29 58.8 °F 51.3 °F 30.12 in NNE 3.0 mph 9.0 mph 76% 0.00 in
10:34 59.1 °F 50.5 °F 30.12 in North 5.0 mph 10.0 mph 73% 0.00 in
10:39 59.3 °F 50.3 °F 30.12 in NNE 5.0 mph 10.0 mph 72% 0.00 in
10:44 59.5 °F 50.5 °F 30.12 in North 6.0 mph 10.0 mph 72% 0.00 in
10:49 59.7 °F 51.0 °F 30.12 in North 9.0 mph 9.0 mph 73% 0.00 in
10:54 60.0 °F 51.3 °F 30.12 in NNW 6.0 mph 10.0 mph 73% 0.00 in
10:59 60.4 °F 52.1 °F 30.12 in North 5.0 mph 9.0 mph 74% 0.00 in
11:04 60.5 °F 51.1 °F 30.12 in NNE 6.0 mph 8.0 mph 71% 0.00 in
11:09 60.7 °F 52.0 °F 30.12 in NNW 3.0 mph 6.0 mph 73% 0.00 in
11:14 61.2 °F 52.1 °F 30.12 in NNW 4.0 mph 9.0 mph 72% 0.00 in
11:19 61.4 °F 52.3 °F 30.12 in NNE 4.0 mph 8.0 mph 72% 0.00 in
11:24 61.5 °F 51.2 °F 30.12 in North 2.0 mph 7.0 mph 69% 0.00 in
11:29 62.0 °F 52.1 °F 30.12 in North 5.0 mph 9.0 mph 70% 0.00 in
11:34 62.3 °F 51.2 °F 30.12 in NE 5.0 mph 9.0 mph 67% 0.00 in
11:39 62.5 °F 53.0 °F 30.12 in NNW 7.0 mph 9.0 mph 71% 0.00 in
11:44 62.8 °F 52.1 °F 30.12 in NE 7.0 mph 11.0 mph 68% 0.00 in
11:50 62.7 °F 50.8 °F 30.12 in NNW 6.0 mph 10.0 mph 65% 0.00 in
11:55 62.8 °F 51.3 °F 30.11 in NNW 3.0 mph 8.0 mph 66% 0.00 in
12:00 63.4 °F 52.7 °F 30.11 in NNW 3.0 mph 9.0 mph 68% 0.00 in
12:05 63.6 °F 51.6 °F 30.11 in NNE 6.0 mph 10.0 mph 65% 0.00 in
12:10 63.8 °F 51.8 °F 30.11 in NNE 3.0 mph 8.0 mph 65% 0.00 in
12:15 64.3 °F 53.1 °F 30.11 in NE 6.0 mph 8.0 mph 67% 0.00 in
12:20 64.3 °F 51.5 °F 30.11 in North 5.0 mph 9.0 mph 63% 0.00 in
12:25 64.1 °F 51.7 °F 30.11 in NNE 6.0 mph 9.0 mph 64% 0.00 in
12:30 64.5 °F 52.9 °F 30.10 in NW 5.0 mph 8.0 mph 66% 0.00 in
12:35 65.0 °F 52.1 °F 30.11 in NNE 5.0 mph 7.0 mph 63% 0.00 in
12:40 65.0 °F 51.2 °F 30.10 in NNE 7.0 mph 9.0 mph 61% 0.00 in
12:45 65.1 °F 51.8 °F 30.10 in North 5.0 mph 11.0 mph 62% 0.00 in
12:50 65.4 °F 52.1 °F 30.10 in NE 8.0 mph 12.0 mph 62% 0.00 in
12:55 65.4 °F 50.7 °F 30.10 in NNE 5.0 mph 8.0 mph 59% 0.00 in
13:00 65.7 °F 51.0 °F 30.10 in NE 3.0 mph 10.0 mph 59% 0.00 in
13:05 65.8 °F 51.5 °F 30.10 in NNW 6.0 mph 10.0 mph 60% 0.00 in
13:10 65.9 °F 52.1 °F 30.10 in NNW 6.0 mph 12.0 mph 61% 0.00 in
13:15 66.2 °F 50.5 °F 30.09 in NW 8.0 mph 11.0 mph 57% 0.00 in
13:20 66.4 °F 51.7 °F 30.09 in NE 8.0 mph 10.0 mph 59% 0.00 in
13:25 66.5 °F 51.8 °F 30.09 in North 5.0 mph 10.0 mph 59% 0.00 in
13:30 66.5 °F 52.7 °F 30.09 in NW 8.0 mph 8.0 mph 61% 0.00 in
13:35 67.1 °F 51.8 °F 30.09 in NNW 6.0 mph 10.0 mph 58% 0.00 in
13:40 67.4 °F 53.9 °F 30.09 in NNE 6.0 mph 8.0 mph 62% 0.00 in
13:45 67.5 °F 53.1 °F 30.09 in North 9.0 mph 9.0 mph 60% 0.00 in
13:48 67.5 °F 53.6 °F 30.09 in NNE 5.0 mph 9.0 mph 61% 0.00 in
13:53 67.6 °F 52.8 °F 30.09 in WNW 4.0 mph 9.0 mph 59% 0.00 in
13:58 67.9 °F 51.6 °F 30.09 in NW 6.0 mph 10.0 mph 56% 0.00 in
14:03 67.9 °F 53.1 °F 30.08 in NNW 5.0 mph 8.0 mph 59% 0.00 in
14:08 67.8 °F 52.5 °F 30.08 in NNE 11.0 mph 12.0 mph 58% 0.00 in
14:14 67.9 °F 51.6 °F 30.08 in WNW 6.0 mph 12.0 mph 56% 0.00 in
14:19 68.1 °F 52.8 °F 30.08 in NNW 11.0 mph 11.0 mph 58% 0.00 in
14:24 67.9 °F 51.2 °F 30.08 in NW 7.0 mph 12.0 mph 55% 0.00 in
14:29 68.4 °F 52.6 °F 30.08 in WNW 2.0 mph 4.0 mph 57% 0.00 in
14:34 68.6 °F 51.8 °F 30.08 in NNE 5.0 mph 9.0 mph 55% 0.00 in
14:39 68.8 °F 55.3 °F 30.08 in North 7.0 mph 12.0 mph 62% 0.00 in
14:44 68.5 °F 51.7 °F 30.07 in NNE 3.0 mph 11.0 mph 55% 0.00 in
14:49 68.6 °F 51.8 °F 30.07 in NE 5.0 mph 6.0 mph 55% 0.00 in
14:54 68.7 °F 52.9 °F 30.07 in North 8.0 mph 10.0 mph 57% 0.00 in
14:59 69.1 °F 52.3 °F 30.06 in NNW 6.0 mph 13.0 mph 55% 0.00 in
15:04 68.9 °F 51.6 °F 30.06 in NNW 11.0 mph 12.0 mph 54% 0.00 in
15:09 68.8 °F 52.5 °F 30.06 in NW 5.0 mph 9.0 mph 56% 0.00 in
15:14 69.1 °F 51.3 °F 30.06 in North 7.0 mph 8.0 mph 53% 0.00 in
15:19 69.1 °F 52.3 °F 30.06 in NW 9.0 mph 13.0 mph 55% 0.00 in
15:24 68.9 °F 50.6 °F 30.06 in NE 4.0 mph 9.0 mph 52% 0.00 in
15:29 69.3 °F 51.5 °F 30.06 in NNW 12.0 mph 12.0 mph 53% 0.00 in
15:34 69.5 °F 51.6 °F 30.05 in North 7.0 mph 10.0 mph 53% 0.00 in
15:40 69.4 °F 52.5 °F 30.05 in NNW 7.0 mph 14.0 mph 55% 0.00 in
15:45 69.7 °F 51.8 °F 30.04 in NNW 1.0 mph 9.0 mph 53% 0.00 in
15:46 69.8 °F 51.9 °F 30.04 in NE 5.0 mph 5.0 mph 53% 0.00 in
15:51 69.7 °F 50.2 °F 30.04 in NW 6.0 mph 11.0 mph 50% 0.00 in
15:56 69.9 °F 51.5 °F 30.04 in NNW 6.0 mph 9.0 mph 52% 0.00 in
16:01 69.7 °F 50.8 °F 30.04 in NW 9.0 mph 11.0 mph 51% 0.00 in
16:06 70.0 °F 52.1 °F 30.03 in NNE 7.0 mph 9.0 mph 53% 0.00 in
16:11 69.9 °F 51.0 °F 30.03 in NNE 5.0 mph 10.0 mph 51% 0.00 in
16:16 69.9 °F 51.5 °F 30.03 in NNE 5.0 mph 9.0 mph 52% 0.00 in
16:21 70.2 °F 50.7 °F 30.03 in WNW 7.0 mph 9.0 mph 50% 0.00 in
16:26 70.3 °F 52.4 °F 30.03 in NNE 5.0 mph 8.0 mph 53% 0.00 in
16:31 70.4 °F 49.8 °F 30.02 in North 2.0 mph 8.0 mph 48% 0.00 in
16:36 70.2 °F 51.2 °F 30.02 in NE 4.0 mph 7.0 mph 51% 0.00 in
16:41 70.4 °F 50.9 °F 30.02 in NE 5.0 mph 12.0 mph 50% 0.00 in
16:47 70.0 °F 49.4 °F 30.02 in North 5.0 mph 9.0 mph 48% 0.00 in
16:52 70.0 °F 50.0 °F 30.02 in North 4.0 mph 6.0 mph 49% 0.00 in
16:54 70.1 °F 51.2 °F 30.02 in NW 7.0 mph 9.0 mph 51% 0.00 in
16:59 70.0 °F 50.0 °F 30.02 in North 5.0 mph 11.0 mph 49% 0.00 in
17:04 69.1 °F 48.6 °F 30.02 in North 5.0 mph 6.0 mph 48% 0.00 in
17:09 69.5 °F 51.1 °F 30.02 in NW 5.0 mph 7.0 mph 52% 0.00 in
17:14 70.1 °F 51.2 °F 30.02 in NW 2.0 mph 8.0 mph 51% 0.00 in
17:19 70.4 °F 49.8 °F 30.01 in ENE 5.0 mph 8.0 mph 48% 0.00 in
17:24 70.1 °F 48.4 °F 30.01 in NE 5.0 mph 11.0 mph 46% 0.00 in
17:29 70.0 °F 48.9 °F 30.01 in NNE 6.0 mph 6.0 mph 47% 0.00 in
17:34 70.2 °F 51.8 °F 30.01 in NNE 5.0 mph 9.0 mph 52% 0.00 in
17:39 70.2 °F 49.6 °F 30.01 in NNW 5.0 mph 9.0 mph 48% 0.00 in
17:44 70.0 °F 48.9 °F 30.01 in NNE 6.0 mph 7.0 mph 47% 0.00 in
17:49 70.1 °F 50.6 °F 30.01 in NNW 8.0 mph 11.0 mph 50% 0.00 in
17:54 70.0 °F 50.0 °F 30.01 in North 9.0 mph 9.0 mph 49% 0.00 in
18:00 70.1 °F 49.0 °F 30.01 in NNW 7.0 mph 7.0 mph 47% 0.00 in
18:05 70.0 °F 49.4 °F 30.01 in NW 7.0 mph 9.0 mph 48% 0.00 in
18:10 69.9 °F 48.2 °F 30.01 in NNE 4.0 mph 8.0 mph 46% 0.00 in
18:15 69.9 °F 49.3 °F 30.01 in NNW 5.0 mph 7.0 mph 48% 0.00 in
18:20 70.1 °F 49.0 °F 30.01 in NNW 6.0 mph 8.0 mph 47% 0.00 in
18:25 70.1 °F 49.5 °F 30.01 in NW 5.0 mph 6.0 mph 48% 0.00 in
18:30 70.1 °F 48.4 °F 30.01 in NNW 2.0 mph 7.0 mph 46% 0.00 in
18:35 70.0 °F 50.0 °F 30.01 in NNW 5.0 mph 9.0 mph 49% 0.00 in
18:40 69.9 °F 49.9 °F 30.01 in NNW 4.0 mph 7.0 mph 49% 0.00 in
18:45 69.7 °F 48.0 °F 30.01 in NNE 4.0 mph 7.0 mph 46% 0.00 in
18:46 69.7 °F 48.0 °F 30.01 in North 2.0 mph 6.0 mph 46% 0.00 in
18:51 69.6 °F 47.9 °F 30.01 in North 2.0 mph 5.0 mph 46% 0.00 in
18:56 69.5 °F 47.2 °F 30.01 in North 4.0 mph 7.0 mph 45% 0.00 in
19:01 69.4 °F 48.3 °F 30.01 in North 6.0 mph 7.0 mph 47% 0.00 in
19:06 69.3 °F 48.2 °F 30.01 in NNE 2.0 mph 7.0 mph 47% 0.00 in
19:11 69.2 °F 48.7 °F 30.01 in North 2.0 mph 5.0 mph 48% 0.00 in
19:16 69.1 °F 48.0 °F 30.01 in North 5.0 mph 6.0 mph 47% 0.00 in
19:21 69.0 °F 48.5 °F 30.01 in NNE 2.0 mph 4.0 mph 48% 0.00 in
19:26 68.8 °F 48.3 °F 30.01 in North 5.0 mph 5.0 mph 48% 0.00 in
19:32 68.5 °F 48.6 °F 30.01 in NNW 2.0 mph 5.0 mph 49% 0.00 in
19:37 68.4 °F 48.5 °F 30.01 in NNW 3.0 mph 4.0 mph 49% 0.00 in
19:42 68.3 °F 48.4 °F 30.01 in Calm   2.0 mph 49% 0.00 in
19:47 68.4 °F 49.1 °F 30.01 in NNW 1.0 mph 2.0 mph 50% 0.00 in
19:52 68.2 °F 48.9 °F 30.01 in Calm   2.0 mph 50% 0.00 in
19:57 67.8 °F 48.5 °F 30.01 in North 1.0 mph 3.0 mph 50% 0.00 in
20:02 67.2 °F 48.0 °F 30.01 in North 3.0 mph 3.0 mph 50% 0.00 in
20:07 66.6 °F 47.9 °F 30.01 in North 2.0 mph 3.0 mph 51% 0.00 in
20:12 65.9 °F 47.8 °F 30.01 in NNW 1.0 mph 2.0 mph 52% 0.00 in
20:17 65.1 °F 48.1 °F 30.01 in North 1.0 mph 2.0 mph 54% 0.00 in
20:22 64.4 °F 47.9 °F 30.01 in North 1.0 mph 1.0 mph 55% 0.00 in
20:27 63.8 °F 47.3 °F 30.01 in Calm   1.0 mph 55% 0.00 in
20:32 63.5 °F 47.1 °F 30.01 in North 1.0 mph 1.0 mph 55% 0.00 in
20:37 63.1 °F 47.2 °F 30.01 in Calm   1.0 mph 56% 0.00 in
20:42 62.7 °F 47.3 °F 30.01 in Calm     57% 0.00 in
20:47 62.1 °F 47.2 °F 30.01 in North 1.0 mph 1.0 mph 58% 0.00 in
20:52 61.8 °F 46.9 °F 30.01 in North 1.0 mph 1.0 mph 58% 0.00 in
20:57 61.7 °F 47.7 °F 30.02 in Calm   1.0 mph 60% 0.00 in
21:02 61.3 °F 47.3 °F 30.02 in East 1.0 mph 2.0 mph 60% 0.00 in
21:07 61.4 °F 47.4 °F 30.02 in ENE 1.0 mph 2.0 mph 60% 0.00 in
21:12 61.3 °F 47.3 °F 30.02 in North 1.0 mph 2.0 mph 60% 0.00 in
21:17 60.9 °F 47.4 °F 30.02 in Calm   1.0 mph 61% 0.00 in
21:22 60.3 °F 47.2 °F 30.02 in Calm     62% 0.00 in
21:27 59.5 °F 47.3 °F 30.02 in Calm   1.0 mph 64% 0.00 in
21:33 58.8 °F 47.9 °F 30.03 in Calm     67% 0.00 in
21:38 58.0 °F 47.9 °F 30.03 in North 1.0 mph 1.0 mph 69% 0.00 in
21:43 57.5 °F 48.2 °F 30.03 in North 1.0 mph 1.0 mph 71% 0.00 in
21:48 57.0 °F 48.1 °F 30.03 in Calm   1.0 mph 72% 0.00 in
21:53 56.6 °F 48.1 °F 30.03 in North 1.0 mph 1.0 mph 73% 0.00 in
21:58 56.4 °F 47.5 °F 30.03 in North 1.0 mph 1.0 mph 72% 0.00 in
22:03 56.5 °F 48.0 °F 30.04 in Calm   1.0 mph 73% 0.00 in
22:08 56.4 °F 47.5 °F 30.04 in Calm     72% 0.00 in
22:13 56.1 °F 47.9 °F 30.04 in Calm   1.0 mph 74% 0.00 in
22:18 55.8 °F 47.7 °F 30.04 in Calm     74% 0.00 in
22:23 55.8 °F 47.7 °F 30.04 in Calm   1.0 mph 74% 0.00 in
22:28 55.4 °F 47.3 °F 30.04 in Calm     74% 0.00 in
22:33 54.6 °F 46.8 °F 30.04 in Calm     75% 0.00 in
22:38 54.2 °F 47.2 °F 30.04 in Calm     77% 0.00 in
22:43 54.4 °F 47.0 °F 30.04 in Calm     76% 0.00 in
22:48 54.4 °F 47.3 °F 30.04 in North 1.0 mph 1.0 mph 77% 0.00 in
22:53 54.5 °F 47.5 °F 30.04 in Calm   1.0 mph 77% 0.00 in
22:58 54.6 °F 47.5 °F 30.04 in Calm   1.0 mph 77% 0.00 in
23:03 54.9 °F 47.1 °F 30.04 in Calm   1.0 mph 75% 0.00 in
23:08 54.9 °F 47.5 °F 30.04 in Calm     76% 0.00 in
23:13 54.5 °F 47.1 °F 30.04 in Calm   1.0 mph 76% 0.00 in
23:18 54.6 °F 47.2 °F 30.03 in Calm   1.0 mph 76% 0.00 in
23:23 54.8 °F 47.0 °F 30.03 in Calm   1.0 mph 75% 0.00 in
23:28 54.6 °F 47.2 °F 30.04 in Calm     76% 0.00 in
23:33 53.8 °F 47.8 °F 30.03 in Calm   1.0 mph 80% 0.00 in
23:39 53.2 °F 46.9 °F 30.03 in Calm     79% 0.00 in
23:44 53.2 °F 46.9 °F 30.03 in Calm     79% 0.00 in
23:49 53.6 °F 46.9 °F 30.03 in Calm   1.0 mph 78% 0.00 in
23:54 53.8 °F 46.8 °F 30.03 in Calm   1.0 mph 77% 0.00 in
23:59 53.8 °F 46.4 °F 30.03 in Calm     76% 0.00 in
Compliments of Weather Underground